Location: Lewisville
(33.0462°N, 96.9942°W)
Time: 04:20:27
(UTC-06:00)

Envisat - Pass Details

Date: 14 October 2019
Orbit: 764 x 766 km, 98.1° (Epoch: 18 November)

Event Time Altitude Azimuth Distance (km) Brightness Sun altitude
Rises 19:29:10 0° 161° (SSE) 3,217 6.1 -7.7°
Reaches altitude 10° 19:31:28 10° 160° (SSE) 2,295 5.3 -8.2°
Maximum altitude 19:36:30 73° 76° (ENE) 802 2.9 -9.2°
Drops below altitude 10° 19:41:34 10° 352° (N) 2,308 5.5 -10.3°
Sets 19:43:53 0° 351° (N) 3,237 6.3 -10.8°
